F8KGK-5 Weather Reports


time (UTC)temp
F
wind
direction
speed
knots
gust
knots
rain 1hr
in
rain 24hr
in
rain mn
in
humidity
%
barometer
mb
20260506114051 71 4 7.8 12.2 0.00 0.00 0.00 41 1004.8
20260506111051 74 351 7.8 10.4 0.00 0.00 0.00 40 1004.8
20260506104051 71 320 7.8 13.0 0.00 0.00 0.00 42 1004.9
20260506101052 69 12 5.2 10.4 0.00 0.00 0.00 45 1004.8
20260506094052 66 6 7.8 14.8 0.00 0.00 0.00 47 1004.6
20260506091052 66 352 10.4 12.2 0.00 0.00 0.00 50 1004.5
20260506084051 61 4 4.3 6.1 0.00 0.00 0.00 56 1004.2
20260506081051 67 12 7.0 9.6 0.00 0.00 0.00 53 1004.2
20260506071052 56 1 7.0 9.6 0.00 0.00 0.00 70 1003.8
20260506061051 50 0 7.0 8.7 0.00 0.00 0.00 82 1003.5
20260506051051 47 6 4.3 5.2 0.00 0.00 0.00 84 1003.2
20260506044050 47 12 5.2 7.0 0.00 0.00 0.00 84 1003.1
20260506041051 47 8 4.3 6.1 0.00 0.00 0.00 83 1003.0
20260506034051 47 9 6.1 7.0 0.00 0.00 0.00 82 1002.9
20260506033732 47 23 5.2 7.0 0.00 0.00 0.00 82 1002.9
20260506030731 47 7 6.1 7.8 0.00 0.00 0.00 83 1002.9
20260506030416 47 15 4.3 14.8 0.00 0.00 0.00 83 1002.9
20260506023415 47 4 5.2 7.8 0.00 0.00 0.00 82 1002.7
20260506020415 48 11 6.1 9.6 0.00 0.00 0.00 81 1002.8
20260506013414 48 4 4.3 9.6 0.00 0.00 0.00 81 1002.7
20260506010415 48 353 5.2 7.0 0.00 0.00 0.00 81 1002.8
20260506003415 49 10 5.2 9.6 0.00 0.00 0.00 79 1002.8
20260506000416 49 12 6.1 7.0 0.00 0.00 0.00 79 1002.8
20260505233415 50 17 6.1 8.7 0.00 0.00 0.00 78 1002.9
20260505230414 50 8 6.1 9.6 0.00 0.00 0.00 79 1003.0
20260505223415 50 9 7.0 7.0 0.00 0.00 0.00 80 1002.9
20260505220415 51 3 6.1 7.8 0.00 0.00 0.00 80 1002.9
20260505213416 51 11 4.3 6.1 0.00 0.00 0.00 81 1002.9
20260505210415 52 351 4.3 5.2 0.00 0.00 0.00 80 1002.9
20260505203414 52 10 4.3 4.3 0.00 0.00 0.00 79 1003.0
20260505200415 53 22 5.2 6.1 0.00 0.00 0.00 77 1002.6
20260505193416 53 14 6.1 7.8 0.00 0.00 0.00 77 1002.3
20260505190415 53 8 7.0 8.7 0.00 0.00 0.00 76 1002.1
20260505183415 54 352 7.0 9.6 0.00 0.00 0.00 76 1001.9
20260505180415 56 340 7.0 7.8 0.00 0.00 0.00 75 1001.9
20260505173413 57 338 4.3 7.8 0.00 0.00 0.00 74 1001.9
20260505170414 58 347 7.0 8.7 0.00 0.00 0.00 73 1002.0
20260505163415 58 354 8.7 8.7 0.00 0.00 0.00 74 1002.0
20260505160415 59 353 7.0 10.4 0.00 0.00 0.00 73 1002.1
20260505123734 59 347 7.0 9.6 0.00 0.00 0.00 73 1002.6
20260505120733 58 8 5.2 7.8 0.00 0.00 0.00 76 1002.9